GFSNW_prec_precacc_015.txt.gz
Total_Precipitation_Accumulation
0.00 0.00 0.00 0.00 0.00 0.00 0.00 0.00 0.00 0.00 0.00 0.00 0.00 0.00 0.00 0.00 0.00 0.00 0.00 0.00 0.00 0.00 0.00 0.00 0.00 0.00 0.00 0.00 0.00 0.00 0.00 0.00 0.00 0.00 0.00 0.00 0.00 0.00 0.00 0.01 0.02 0.01 0.03 0.01
0.00 0.00 0.00 0.00 0.00 0.00 0.00 0.00 0.00 0.00 0.00 0.01 0.00 0.00 0.00 0.00 0.00 0.00 0.00 0.00 0.00 0.00 0.00 0.00 0.00 0.00 0.00 0.00 0.00 0.00 0.00 0.00 0.00 0.00 0.00 0.00 0.00 0.00 0.00 0.00 0.00 0.01 0.03 0.00
0.00 0.00 0.00 0.00 0.00 0.00 0.00 0.00 0.00 0.00 0.00 0.00 0.00 0.00 0.00 0.00 0.00 0.00 0.00 0.00 0.00 0.00 0.00 0.00 0.00 0.00 0.00 0.00 0.00 0.00 0.00 0.00 0.00 0.00 0.00 0.00 0.00 0.00 0.00 0.00 0.00 0.00 0.00 0.00
0.00 0.00 0.00 0.00 0.00 0.00 0.00 0.00 0.00 0.00 0.00 0.00 0.00 0.00 0.00 0.00 0.00 0.00 0.00 0.00 0.00 0.00 0.00 0.00 0.00 0.00 0.00 0.00 0.00 0.00 0.00 0.00 0.00 0.00 0.00 0.00 0.00 0.00 0.00 0.00 0.00 0.00 0.00 0.00
0.00 0.00 0.00 0.00 0.00 0.00 0.00 0.00 0.00 0.00 0.00 0.00 0.00 0.00 0.00 0.00 0.00 0.00 0.00 0.00 0.00 0.00 0.00 0.00 0.00 0.00 0.00 0.00 0.00 0.00 0.00 0.00 0.00 0.00 0.00 0.00 0.00 0.00 0.00 0.00 0.00 0.00 0.00 0.00
0.00 0.00 0.00 0.00 0.00 0.00 0.00 0.00 0.00 0.00 0.00 0.00 0.00 0.00 0.00 0.00 0.00 0.00 0.00 0.00 0.00 0.00 0.00 0.00 0.00 0.00 0.00 0.00 0.00 0.00 0.00 0.00 0.01 0.01 0.00 0.01 0.01 0.00 0.00 0.00 0.00 0.00 0.00 0.00
0.00 0.01 0.00 0.00 0.00 0.00 0.00 0.00 0.00 0.01 0.01 0.00 0.00 0.00 0.00 0.00 0.00 0.00 0.00 0.00 0.00 0.00 0.00 0.00 0.00 0.00 0.00 0.00 0.00 0.00 0.00 0.00 0.01 0.01 0.02 0.07 0.00 0.00 0.00 0.00 0.00 0.00 0.00 0.00
0.00 0.00 0.00 0.00 0.00 0.00 0.00 0.00 0.00 0.01 0.02 0.00 0.00 0.00 0.00 0.00 0.00 0.00 0.00 0.00 0.00 0.00 0.00 0.00 0.00 0.00 0.00 0.00 0.00 0.00 0.00 0.00 0.01 0.02 0.03 0.01 0.00 0.00 0.00 0.00 0.00 0.00 0.00 0.02
0.00 0.00 0.00 0.00 0.00 0.00 0.00 0.00 0.00 0.01 0.02 0.00 0.00 0.00 0.00 0.00 0.01 0.01 0.01 0.00 0.00 0.00 0.01 0.01 0.01 0.00 0.00 0.00 0.00 0.00 0.00 0.00 0.02 0.02 0.03 0.03 0.00 0.00 0.00 0.00 0.00 0.01 0.04 0.09
0.00 0.00 0.00 0.00 0.00 0.00 0.00 0.02 0.01 0.04 0.03 0.00 0.00 0.00 0.00 0.00 0.01 0.02 0.02 0.02 0.01 0.00 0.01 0.02 0.01 0.01 0.00 0.01 0.01 0.01 0.01 0.00 0.00 0.00 0.02 0.01 0.00 0.00 0.01 0.11 0.13 0.06 0.12 0.16
0.00 0.00 0.00 0.00 0.00 0.00 0.00 0.02 0.05 0.12 0.08 0.00 0.00 0.00 0.00 0.00 0.01 0.04 0.04 0.03 0.00 0.01 0.01 0.01 0.00 0.01 0.01 0.01 0.00 0.01 0.03 0.09 0.10 0.05 0.13 0.05 0.00 0.02 0.12 0.16 0.07 0.07 0.05 0.05
0.00 0.00 0.00 0.00 0.00 0.00 0.00 0.01 0.05 0.09 0.12 0.02 0.00 0.00 0.00 0.00 0.00 0.04 0.08 0.04 0.03 0.06 0.03 0.01 0.01 0.01 0.01 0.00 0.02 0.00 0.01 0.01 0.02 0.02 0.02 0.00 0.00 0.02 0.01 0.03 0.08 0.06 0.06 0.03
0.00 0.00 0.00 0.00 0.01 0.02 0.02 0.01 0.04 0.03 0.05 0.03 0.02 0.00 0.00 0.00 0.00 0.02 0.11 0.04 0.03 0.07 0.09 0.16 0.08 0.12 0.06 0.05 0.04 0.01 0.03 0.02 0.02 0.01 0.01 0.00 0.01 0.01 0.02 0.06 0.07 0.06 0.07 0.08
0.00 0.00 0.00 0.00 0.00 0.00 0.02 0.03 0.04 0.10 0.13 0.10 0.03 0.00 0.00 0.00 0.00 0.00 0.01 0.04 0.10 0.17 0.25 0.22 0.16 0.22 0.11 0.06 0.02 0.04 0.07 0.05 0.02 0.03 0.01 0.02 0.03 0.06 0.08 0.08 0.13 0.12 0.08 0.07
0.01 0.01 0.01 0.00 0.00 0.02 0.05 0.08 0.04 0.08 0.22 0.21 0.08 0.02 0.00 0.00 0.00 0.00 0.01 0.06 0.10 0.21 0.20 0.12 0.04 0.01 0.03 0.02 0.03 0.06 0.04 0.02 0.04 0.08 0.04 0.17 0.08 0.10 0.09 0.11 0.15 0.10 0.07 0.03
0.06 0.05 0.04 0.05 0.09 0.28 0.66 0.62 0.18 0.07 0.18 0.63 0.35 0.04 0.00 0.00 0.00 0.00 0.00 0.01 0.09 0.23 0.13 0.03 0.01 0.01 0.08 0.18 0.08 0.01 0.00 0.01 0.10 0.14 0.09 0.12 0.08 0.05 0.06 0.08 0.07 0.03 0.01 0.00
0.04 0.07 0.12 0.18 0.36 0.72 0.89 0.64 0.18 0.04 0.20 0.96 0.67 0.12 0.01 0.00 0.00 0.01 0.02 0.04 0.08 0.10 0.09 0.03 0.01 0.02 0.22 0.22 0.09 0.00 0.00 0.01 0.03 0.05 0.07 0.10 0.08 0.11 0.06 0.03 0.00 0.00 0.00 0.00
0.04 0.04 0.10 0.33 0.92 1.20 0.93 0.62 0.57 0.42 0.44 0.70 0.64 0.19 0.02 0.00 0.00 0.01 0.00 0.00 0.01 0.04 0.06 0.04 0.05 0.04 0.12 0.19 0.03 0.00 0.00 0.00 0.00 0.01 0.01 0.06 0.02 0.01 0.01 0.00 0.00 0.00 0.00 0.00
0.06 0.10 0.19 0.31 0.36 0.37 0.44 0.62 0.65 0.72 0.85 1.00 0.51 0.07 0.02 0.03 0.02 0.02 0.03 0.07 0.12 0.10 0.04 0.01 0.05 0.03 0.04 0.01 0.00 0.00 0.00 0.00 0.01 0.00 0.00 0.00 0.00 0.00 0.01 0.00 0.00 0.00 0.00 0.00
0.06 0.05 0.07 0.14 0.17 0.22 0.23 0.34 0.50 0.78 0.87 0.77 0.37 0.06 0.03 0.02 0.05 0.10 0.13 0.25 0.21 0.17 0.02 0.03 0.05 0.01 0.00 0.00 0.00 0.00 0.00 0.00 0.00 0.00 0.01 0.03 0.04 0.02 0.00 0.00 0.00 0.00 0.00 0.00
0.00 0.01 0.03 0.05 0.07 0.07 0.09 0.18 0.21 0.23 0.22 0.18 0.07 0.01 0.03 0.05 0.09 0.17 0.24 0.24 0.12 0.12 0.01 0.08 0.05 0.00 0.00 0.00 0.00 0.00 0.00 0.00 0.00 0.01 0.01 0.01 0.00 0.00 0.00 0.00 0.00 0.00 0.00 0.00
0.01 0.01 0.02 0.01 0.02 0.03 0.04 0.09 0.06 0.06 0.03 0.01 0.02 0.01 0.01 0.06 0.09 0.15 0.17 0.09 0.08 0.06 0.01 0.04 0.04 0.01 0.00 0.00 0.00 0.00 0.00 0.00 0.00 0.00 0.00 0.00 0.00 0.00 0.00 0.00 0.00 0.00 0.00 0.00
0.00 0.00 0.01 0.01 0.02 0.02 0.03 0.03 0.05 0.05 0.02 0.03 0.01 0.01 0.00 0.01 0.03 0.13 0.14 0.17 0.16 0.09 0.11 0.06 0.02 0.02 0.00 0.00 0.00 0.00 0.00 0.00 0.00 0.00 0.00 0.00 0.00 0.00 0.00 0.00 0.00 0.00 0.00 0.00
0.00 0.00 0.00 0.00 0.00 0.00 0.02 0.02 0.02 0.03 0.04 0.03 0.02 0.03 0.01 0.01 0.01 0.01 0.03 0.04 0.04 0.05 0.02 0.01 0.01 0.00 0.00 0.00 0.00 0.00 0.00 0.00 0.00 0.00 0.00 0.00 0.00 0.00 0.00 0.00 0.00 0.00 0.00 0.00
0.00 0.00 0.00 0.01 0.01 0.01 0.00 0.00 0.01 0.02 0.02 0.01 0.01 0.02 0.01 0.00 0.00 0.00 0.00 0.01 0.01 0.00 0.00 0.02 0.01 0.00 0.00 0.00 0.00 0.00 0.00 0.00 0.00 0.00 0.00 0.00 0.00 0.00 0.00 0.00 0.00 0.00 0.00 0.00
0.00 0.00 0.00 0.01 0.01 0.01 0.00 0.00 0.00 0.01 0.01 0.00 0.00 0.00 0.00 0.00 0.00 0.01 0.00 0.00 0.00 0.00 0.02 0.02 0.00 0.00 0.00 0.00 0.00 0.00 0.00 0.00 0.00 0.00 0.00 0.00 0.00 0.00 0.01 0.01 0.01 0.02 0.01 0.01
0.00 0.00 0.00 0.01 0.00 0.00 0.00 0.00 0.00 0.01 0.00 0.00 0.00 0.00 0.00 0.00 0.01 0.00 0.00 0.00 0.00 0.00 0.00 0.00 0.00 0.00 0.00 0.00 0.00 0.00 0.00 0.00 0.00 0.00 0.00 0.01 0.01 0.03 0.04 0.04 0.02 0.01 0.01 0.02

GFSNW_prec_precacc_021.txt.gz
Total_Precipitation_Accumulation
0.00 0.00 0.00 0.00 0.00 0.00 0.00 0.00 0.00 0.00 0.00 0.00 0.00 0.00 0.00 0.00 0.00 0.00 0.00 0.00 0.00 0.00 0.00 0.00 0.00 0.00 0.00 0.00 0.00 0.00 0.00 0.00 0.00 0.00 0.00 0.00 0.00 0.00 0.00 0.01 0.02 0.01 0.03 0.01
0.00 0.00 0.00 0.00 0.00 0.00 0.00 0.00 0.00 0.00 0.00 0.01 0.00 0.00 0.00 0.00 0.00 0.00 0.00 0.00 0.00 0.00 0.00 0.00 0.00 0.00 0.00 0.00 0.00 0.00 0.00 0.00 0.00 0.00 0.00 0.00 0.00 0.00 0.00 0.00 0.00 0.01 0.03 0.00
0.00 0.00 0.00 0.00 0.00 0.00 0.00 0.00 0.00 0.00 0.00 0.00 0.00 0.00 0.00 0.00 0.00 0.00 0.00 0.00 0.00 0.00 0.00 0.00 0.00 0.00 0.00 0.00 0.00 0.00 0.00 0.00 0.00 0.00 0.00 0.00 0.00 0.00 0.00 0.00 0.00 0.00 0.00 0.00
0.00 0.01 0.01 0.00 0.00 0.00 0.00 0.00 0.00 0.00 0.00 0.00 0.00 0.00 0.00 0.00 0.00 0.00 0.00 0.00 0.00 0.00 0.00 0.00 0.00 0.00 0.00 0.00 0.00 0.00 0.00 0.00 0.00 0.00 0.00 0.00 0.00 0.00 0.00 0.00 0.00 0.00 0.00 0.00
0.00 0.01 0.01 0.00 0.00 0.00 0.00 0.00 0.00 0.00 0.00 0.00 0.00 0.00 0.00 0.00 0.00 0.00 0.00 0.00 0.00 0.00 0.00 0.00 0.00 0.00 0.00 0.00 0.00 0.00 0.00 0.00 0.00 0.00 0.00 0.00 0.00 0.00 0.00 0.00 0.00 0.00 0.00 0.00
0.00 0.01 0.01 0.00 0.00 0.00 0.00 0.00 0.00 0.00 0.00 0.00 0.00 0.00 0.00 0.00 0.00 0.00 0.00 0.00 0.00 0.00 0.00 0.00 0.00 0.00 0.00 0.00 0.00 0.00 0.00 0.00 0.01 0.01 0.00 0.01 0.01 0.00 0.00 0.00 0.00 0.00 0.00 0.00
0.01 0.01 0.00 0.00 0.00 0.00 0.00 0.00 0.00 0.01 0.01 0.00 0.00 0.00 0.00 0.00 0.00 0.00 0.00 0.00 0.00 0.00 0.00 0.00 0.00 0.00 0.00 0.00 0.00 0.00 0.00 0.00 0.01 0.01 0.02 0.07 0.00 0.00 0.00 0.00 0.00 0.00 0.00 0.00
0.00 0.01 0.00 0.00 0.00 0.00 0.00 0.00 0.00 0.01 0.02 0.00 0.00 0.00 0.00 0.00 0.00 0.00 0.00 0.00 0.00 0.00 0.00 0.00 0.00 0.00 0.00 0.00 0.00 0.00 0.00 0.00 0.01 0.02 0.03 0.02 0.00 0.00 0.00 0.00 0.00 0.00 0.00 0.02
0.00 0.00 0.00 0.00 0.00 0.00 0.00 0.00 0.00 0.01 0.02 0.00 0.00 0.00 0.00 0.00 0.01 0.01 0.01 0.00 0.00 0.00 0.01 0.01 0.01 0.00 0.00 0.00 0.00 0.00 0.00 0.00 0.02 0.02 0.04 0.04 0.00 0.00 0.00 0.00 0.00 0.01 0.04 0.09
0.00 0.00 0.00 0.00 0.00 0.00 0.00 0.02 0.01 0.04 0.03 0.00 0.00 0.00 0.00 0.00 0.01 0.02 0.02 0.02 0.01 0.00 0.01 0.02 0.01 0.01 0.00 0.01 0.01 0.01 0.01 0.00 0.00 0.00 0.03 0.01 0.00 0.00 0.01 0.11 0.14 0.06 0.12 0.16
0.00 0.00 0.00 0.00 0.00 0.00 0.00 0.02 0.05 0.12 0.08 0.00 0.00 0.00 0.00 0.00 0.01 0.04 0.04 0.03 0.00 0.01 0.01 0.01 0.00 0.01 0.01 0.01 0.00 0.01 0.03 0.09 0.10 0.06 0.15 0.05 0.00 0.02 0.12 0.16 0.07 0.07 0.06 0.05
0.00 0.00 0.00 0.00 0.00 0.00 0.00 0.01 0.05 0.09 0.12 0.02 0.00 0.00 0.00 0.00 0.00 0.04 0.08 0.04 0.03 0.06 0.03 0.01 0.01 0.01 0.01 0.00 0.02 0.00 0.01 0.01 0.02 0.03 0.03 0.00 0.00 0.02 0.01 0.03 0.09 0.06 0.06 0.06
0.00 0.00 0.00 0.00 0.01 0.02 0.02 0.01 0.04 0.03 0.05 0.03 0.02 0.00 0.00 0.00 0.00 0.02 0.11 0.04 0.03 0.07 0.09 0.16 0.08 0.12 0.06 0.05 0.04 0.01 0.04 0.02 0.02 0.02 0.01 0.00 0.01 0.01 0.02 0.06 0.07 0.11 0.19 0.24
0.00 0.00 0.00 0.00 0.00 0.00 0.02 0.03 0.04 0.10 0.13 0.10 0.03 0.00 0.00 0.00 0.00 0.00 0.01 0.04 0.10 0.17 0.25 0.24 0.17 0.23 0.12 0.07 0.02 0.05 0.07 0.06 0.03 0.04 0.01 0.02 0.03 0.07 0.11 0.17 0.28 0.27 0.19 0.14
0.01 0.01 0.01 0.00 0.00 0.02 0.05 0.08 0.04 0.08 0.22 0.21 0.08 0.02 0.00 0.00 0.00 0.00 0.01 0.06 0.10 0.21 0.20 0.13 0.04 0.02 0.04 0.06 0.08 0.13 0.06 0.03 0.05 0.08 0.05 0.20 0.13 0.22 0.33 0.33 0.25 0.15 0.09 0.04
0.06 0.05 0.05 0.06 0.09 0.28 0.66 0.62 0.18 0.07 0.18 0.63 0.35 0.04 0.00 0.00 0.00 0.00 0.00 0.01 0.09 0.23 0.13 0.03 0.01 0.01 0.10 0.25 0.13 0.02 0.00 0.01 0.11 0.16 0.11 0.19 0.24 0.28 0.20 0.19 0.13 0.04 0.01 0.00
0.05 0.09 0.13 0.20 0.39 0.74 0.90 0.64 0.18 0.04 0.20 0.96 0.67 0.12 0.01 0.00 0.00 0.01 0.02 0.04 0.09 0.10 0.10 0.05 0.02 0.03 0.28 0.36 0.13 0.00 0.00 0.01 0.04 0.05 0.09 0.16 0.16 0.18 0.14 0.06 0.01 0.00 0.00 0.00
0.07 0.09 0.16 0.42 1.08 1.30 0.97 0.64 0.60 0.44 0.45 0.70 0.65 0.20 0.02 0.00 0.00 0.01 0.00 0.00 0.01 0.04 0.06 0.05 0.05 0.04 0.13 0.23 0.03 0.00 0.00 0.00 0.00 0.01 0.01 0.07 0.03 0.01 0.01 0.00 0.00 0.00 0.00 0.00
0.23 0.33 0.50 0.64 0.58 0.47 0.51 0.73 0.80 0.93 0.99 1.08 0.57 0.08 0.03 0.05 0.04 0.03 0.04 0.07 0.12 0.10 0.04 0.02 0.06 0.03 0.05 0.02 0.00 0.00 0.00 0.00 0.01 0.00 0.00 0.00 0.00 0.00 0.01 0.00 0.00 0.00 0.00 0.00
0.57 0.57 0.58 0.66 0.53 0.47 0.40 0.54 0.77 1.18 1.29 1.05 0.49 0.12 0.10 0.06 0.07 0.13 0.17 0.28 0.22 0.18 0.02 0.03 0.05 0.02 0.00 0.00 0.00 0.00 0.00 0.00 0.00 0.00 0.01 0.03 0.04 0.02 0.00 0.00 0.00 0.00 0.00 0.00
0.44 0.55 0.59 0.47 0.42 0.36 0.40 0.44 0.43 0.47 0.41 0.31 0.14 0.06 0.07 0.08 0.15 0.27 0.31 0.28 0.13 0.15 0.01 0.08 0.06 0.01 0.00 0.00 0.00 0.00 0.00 0.00 0.00 0.01 0.01 0.01 0.00 0.00 0.00 0.00 0.00 0.00 0.00 0.00
0.29 0.26 0.40 0.47 0.38 0.25 0.23 0.26 0.18 0.11 0.06 0.03 0.02 0.01 0.04 0.12 0.14 0.20 0.28 0.16 0.13 0.08 0.01 0.06 0.06 0.01 0.00 0.00 0.00 0.00 0.00 0.00 0.00 0.00 0.00 0.00 0.00 0.00 0.00 0.00 0.00 0.00 0.00 0.00
0.13 0.16 0.26 0.22 0.16 0.09 0.05 0.05 0.06 0.06 0.02 0.03 0.01 0.02 0.01 0.02 0.05 0.20 0.22 0.22 0.19 0.11 0.13 0.06 0.02 0.02 0.00 0.00 0.00 0.00 0.00 0.00 0.00 0.00 0.00 0.00 0.00 0.00 0.00 0.00 0.00 0.00 0.00 0.00
0.04 0.05 0.08 0.05 0.04 0.01 0.02 0.02 0.02 0.03 0.04 0.04 0.02 0.03 0.01 0.02 0.03 0.04 0.05 0.07 0.06 0.08 0.03 0.01 0.01 0.00 0.00 0.00 0.00 0.00 0.00 0.00 0.00 0.00 0.00 0.00 0.00 0.00 0.00 0.00 0.00 0.00 0.00 0.00
0.00 0.00 0.01 0.01 0.01 0.01 0.00 0.00 0.01 0.02 0.02 0.01 0.03 0.05 0.02 0.01 0.01 0.01 0.01 0.02 0.01 0.01 0.00 0.02 0.01 0.00 0.00 0.00 0.00 0.00 0.00 0.00 0.00 0.00 0.00 0.00 0.00 0.00 0.00 0.00 0.00 0.00 0.00 0.00
0.00 0.00 0.00 0.01 0.01 0.01 0.00 0.00 0.00 0.01 0.01 0.00 0.00 0.01 0.01 0.01 0.02 0.02 0.01 0.00 0.00 0.00 0.02 0.02 0.00 0.00 0.00 0.00 0.00 0.00 0.00 0.00 0.00 0.00 0.00 0.00 0.00 0.00 0.01 0.01 0.01 0.02 0.01 0.01
0.00 0.00 0.00 0.01 0.00 0.00 0.00 0.00 0.00 0.01 0.00 0.00 0.00 0.00 0.00 0.00 0.01 0.00 0.00 0.00 0.00 0.00 0.00 0.00 0.00 0.00 0.00 0.00 0.00 0.00 0.00 0.00 0.00 0.00 0.00 0.01 0.01 0.03 0.04 0.04 0.02 0.01 0.01 0.02

GFSNW_prec_precacc_027.txt.gz
Total_Precipitation_Accumulation
0.00 0.00 0.00 0.00 0.00 0.00 0.00 0.00 0.00 0.00 0.00 0.00 0.00 0.00 0.00 0.00 0.00 0.00 0.00 0.00 0.00 0.00 0.00 0.00 0.00 0.00 0.00 0.00 0.00 0.00 0.00 0.00 0.00 0.00 0.00 0.00 0.00 0.00 0.00 0.01 0.02 0.01 0.03 0.01
0.00 0.00 0.00 0.00 0.00 0.00 0.00 0.00 0.00 0.00 0.00 0.01 0.00 0.00 0.00 0.00 0.00 0.00 0.00 0.00 0.00 0.00 0.00 0.00 0.00 0.00 0.00 0.00 0.00 0.00 0.00 0.00 0.00 0.00 0.00 0.00 0.00 0.00 0.00 0.00 0.00 0.01 0.03 0.00
0.00 0.00 0.01 0.00 0.00 0.00 0.00 0.00 0.00 0.00 0.00 0.00 0.00 0.00 0.00 0.00 0.00 0.00 0.00 0.00 0.00 0.00 0.00 0.00 0.00 0.00 0.00 0.00 0.00 0.00 0.00 0.00 0.00 0.00 0.00 0.00 0.00 0.00 0.00 0.00 0.00 0.00 0.00 0.00
0.00 0.01 0.01 0.00 0.00 0.00 0.00 0.00 0.00 0.00 0.00 0.00 0.00 0.00 0.00 0.00 0.00 0.00 0.00 0.00 0.00 0.00 0.00 0.00 0.00 0.00 0.00 0.00 0.00 0.00 0.00 0.00 0.00 0.00 0.00 0.00 0.00 0.00 0.00 0.00 0.00 0.00 0.00 0.00
0.01 0.01 0.01 0.00 0.00 0.00 0.00 0.00 0.00 0.00 0.00 0.00 0.00 0.00 0.00 0.00 0.00 0.00 0.00 0.00 0.00 0.00 0.00 0.00 0.00 0.00 0.00 0.00 0.00 0.00 0.00 0.00 0.00 0.00 0.00 0.00 0.00 0.00 0.00 0.00 0.00 0.00 0.00 0.00
0.01 0.01 0.01 0.00 0.00 0.00 0.00 0.00 0.00 0.00 0.00 0.00 0.00 0.00 0.00 0.00 0.00 0.00 0.00 0.00 0.00 0.00 0.00 0.00 0.00 0.00 0.00 0.00 0.00 0.00 0.00 0.00 0.01 0.01 0.00 0.01 0.01 0.00 0.00 0.00 0.00 0.00 0.00 0.00
0.01 0.02 0.01 0.00 0.00 0.00 0.00 0.00 0.00 0.02 0.01 0.00 0.00 0.00 0.00 0.00 0.00 0.00 0.00 0.00 0.00 0.00 0.00 0.00 0.00 0.00 0.00 0.00 0.00 0.00 0.00 0.00 0.01 0.01 0.02 0.07 0.00 0.00 0.00 0.00 0.00 0.00 0.00 0.00
0.01 0.02 0.00 0.00 0.00 0.00 0.00 0.00 0.00 0.01 0.04 0.00 0.00 0.00 0.00 0.00 0.00 0.00 0.00 0.00 0.00 0.00 0.00 0.00 0.00 0.00 0.00 0.00 0.00 0.00 0.00 0.00 0.01 0.02 0.03 0.02 0.00 0.00 0.00 0.00 0.00 0.00 0.00 0.02
0.01 0.00 0.00 0.00 0.00 0.00 0.00 0.00 0.00 0.01 0.03 0.00 0.00 0.00 0.00 0.00 0.01 0.01 0.01 0.00 0.00 0.00 0.01 0.01 0.02 0.00 0.00 0.00 0.00 0.00 0.00 0.00 0.02 0.02 0.05 0.04 0.00 0.00 0.00 0.00 0.01 0.01 0.04 0.09
0.00 0.00 0.00 0.00 0.00 0.00 0.00 0.02 0.01 0.04 0.03 0.00 0.00 0.00 0.00 0.00 0.01 0.02 0.02 0.02 0.01 0.00 0.02 0.03 0.01 0.01 0.00 0.01 0.01 0.01 0.01 0.00 0.00 0.00 0.04 0.01 0.00 0.00 0.01 0.14 0.16 0.06 0.12 0.17
0.00 0.00 0.00 0.00 0.00 0.00 0.00 0.02 0.05 0.12 0.08 0.00 0.00 0.00 0.00 0.00 0.01 0.04 0.04 0.03 0.00 0.01 0.01 0.01 0.00 0.01 0.01 0.01 0.00 0.01 0.03 0.09 0.10 0.07 0.16 0.06 0.00 0.02 0.14 0.17 0.07 0.08 0.07 0.06
0.00 0.00 0.00 0.00 0.00 0.00 0.00 0.01 0.05 0.09 0.12 0.02 0.00 0.00 0.00 0.00 0.00 0.04 0.08 0.04 0.03 0.06 0.03 0.01 0.01 0.01 0.01 0.00 0.02 0.00 0.01 0.01 0.02 0.04 0.03 0.00 0.00 0.02 0.01 0.04 0.10 0.07 0.07 0.09
0.00 0.00 0.00 0.00 0.01 0.02 0.02 0.01 0.04 0.03 0.05 0.03 0.02 0.00 0.00 0.00 0.00 0.02 0.11 0.04 0.03 0.07 0.09 0.16 0.09 0.13 0.06 0.05 0.04 0.01 0.04 0.02 0.02 0.02 0.01 0.00 0.01 0.01 0.02 0.06 0.08 0.13 0.20 0.24
0.00 0.00 0.00 0.00 0.00 0.00 0.02 0.03 0.04 0.10 0.13 0.12 0.03 0.00 0.00 0.00 0.00 0.00 0.01 0.04 0.10 0.17 0.25 0.24 0.18 0.24 0.12 0.07 0.02 0.05 0.08 0.06 0.03 0.05 0.01 0.02 0.04 0.07 0.13 0.19 0.31 0.29 0.19 0.14
0.01 0.01 0.01 0.00 0.00 0.02 0.05 0.08 0.04 0.08 0.22 0.22 0.08 0.02 0.00 0.00 0.00 0.00 0.01 0.06 0.10 0.21 0.21 0.14 0.05 0.02 0.04 0.06 0.09 0.13 0.06 0.03 0.06 0.10 0.06 0.23 0.20 0.29 0.39 0.37 0.27 0.15 0.09 0.04
0.06 0.05 0.05 0.06 0.09 0.28 0.66 0.62 0.18 0.07 0.18 0.63 0.36 0.04 0.00 0.00 0.00 0.00 0.00 0.01 0.09 0.24 0.13 0.04 0.01 0.01 0.10 0.26 0.14 0.02 0.00 0.01 0.11 0.16 0.13 0.22 0.32 0.34 0.22 0.20 0.13 0.04 0.01 0.00
0.05 0.09 0.14 0.20 0.39 0.74 0.90 0.64 0.18 0.04 0.20 0.97 0.68 0.12 0.01 0.00 0.00 0.01 0.02 0.04 0.09 0.11 0.10 0.05 0.02 0.03 0.30 0.41 0.16 0.01 0.00 0.01 0.04 0.05 0.10 0.20 0.20 0.19 0.14 0.06 0.01 0.00 0.00 0.00
0.07 0.09 0.19 0.46 1.11 1.31 0.98 0.64 0.60 0.44 0.45 0.71 0.66 0.20 0.02 0.00 0.00 0.01 0.00 0.00 0.02 0.05 0.07 0.05 0.05 0.04 0.15 0.26 0.04 0.00 0.00 0.00 0.00 0.01 0.03 0.09 0.04 0.01 0.01 0.00 0.00 0.00 0.00 0.00
0.26 0.41 0.62 0.74 0.62 0.49 0.52 0.74 0.80 0.94 1.01 1.09 0.58 0.09 0.04 0.05 0.04 0.03 0.04 0.07 0.13 0.10 0.05 0.02 0.06 0.03 0.06 0.02 0.00 0.00 0.00 0.00 0.01 0.00 0.00 0.00 0.00 0.00 0.01 0.00 0.00 0.00 0.00 0.00
0.74 0.76 0.73 0.76 0.61 0.60 0.46 0.59 0.86 1.27 1.35 1.11 0.52 0.13 0.10 0.06 0.07 0.13 0.17 0.29 0.23 0.18 0.02 0.03 0.06 0.04 0.00 0.00 0.00 0.00 0.00 0.01 0.00 0.00 0.01 0.03 0.04 0.02 0.00 0.00 0.00 0.00 0.00 0.00
1.38 1.16 0.95 0.63 0.61 0.44 0.51 0.61 0.61 0.62 0.48 0.34 0.17 0.08 0.08 0.08 0.15 0.29 0.37 0.31 0.15 0.16 0.01 0.09 0.07 0.01 0.00 0.00 0.00 0.00 0.00 0.00 0.00 0.01 0.01 0.01 0.00 0.00 0.00 0.00 0.00 0.00 0.00 0.00
1.09 0.76 0.69 0.72 0.58 0.48 0.58 0.65 0.44 0.20 0.10 0.04 0.03 0.03 0.06 0.17 0.21 0.32 0.42 0.22 0.16 0.10 0.02 0.07 0.06 0.01 0.00 0.00 0.00 0.00 0.00 0.00 0.00 0.00 0.00 0.00 0.00 0.00 0.00 0.00 0.00 0.00 0.00 0.00
0.75 0.84 0.97 0.82 0.75 0.58 0.40 0.24 0.16 0.10 0.04 0.04 0.01 0.04 0.06 0.09 0.13 0.29 0.30 0.29 0.24 0.12 0.14 0.07 0.02 0.02 0.00 0.00 0.00 0.00 0.00 0.00 0.00 0.00 0.00 0.00 0.00 0.00 0.00 0.00 0.00 0.00 0.00 0.00
0.63 0.84 0.84 0.58 0.51 0.31 0.16 0.05 0.03 0.04 0.05 0.04 0.03 0.07 0.07 0.07 0.09 0.10 0.11 0.13 0.08 0.10 0.04 0.01 0.01 0.00 0.00 0.00 0.00 0.00 0.00 0.00 0.00 0.00 0.00 0.00 0.00 0.00 0.00 0.00 0.00 0.00 0.00 0.00
0.16 0.21 0.32 0.29 0.27 0.16 0.10 0.06 0.03 0.04 0.05 0.03 0.05 0.07 0.04 0.04 0.06 0.05 0.04 0.05 0.02 0.01 0.00 0.02 0.01 0.00 0.00 0.00 0.00 0.00 0.00 0.00 0.00 0.00 0.00 0.00 0.00 0.00 0.00 0.00 0.00 0.00 0.00 0.00
0.03 0.07 0.12 0.15 0.14 0.13 0.06 0.03 0.03 0.03 0.02 0.01 0.02 0.02 0.03 0.04 0.03 0.03 0.02 0.01 0.00 0.00 0.02 0.02 0.00 0.00 0.00 0.00 0.00 0.00 0.00 0.00 0.00 0.00 0.00 0.00 0.00 0.00 0.01 0.01 0.01 0.02 0.01 0.01
0.00 0.01 0.02 0.05 0.04 0.04 0.03 0.03 0.03 0.03 0.03 0.02 0.02 0.01 0.02 0.02 0.02 0.01 0.00 0.00 0.00 0.00 0.00 0.00 0.00 0.00 0.00 0.00 0.00 0.00 0.00 0.00 0.00 0.00 0.00 0.01 0.01 0.03 0.04 0.04 0.02 0.01 0.01 0.02

GFSNW_prec_precacc_030.txt.gz
Total_Precipitation_Accumulation
0.00 0.00 0.00 0.00 0.00 0.00 0.00 0.00 0.00 0.00 0.00 0.00 0.00 0.00 0.00 0.00 0.00 0.00 0.00 0.00 0.00 0.00 0.00 0.00 0.00 0.00 0.00 0.00 0.00 0.00 0.00 0.00 0.00 0.00 0.00 0.00 0.00 0.00 0.00 0.01 0.02 0.01 0.03 0.01
0.00 0.00 0.01 0.00 0.00 0.00 0.00 0.00 0.00 0.00 0.00 0.01 0.00 0.00 0.00 0.00 0.00 0.00 0.00 0.00 0.00 0.00 0.00 0.00 0.00 0.00 0.00 0.00 0.00 0.00 0.00 0.00 0.00 0.00 0.00 0.00 0.00 0.00 0.00 0.00 0.00 0.01 0.03 0.00
0.00 0.00 0.01 0.00 0.00 0.00 0.00 0.00 0.00 0.00 0.00 0.00 0.00 0.00 0.00 0.00 0.00 0.00 0.00 0.00 0.00 0.00 0.00 0.00 0.00 0.00 0.00 0.00 0.00 0.00 0.00 0.00 0.00 0.00 0.00 0.00 0.00 0.00 0.00 0.00 0.00 0.00 0.00 0.00
0.01 0.01 0.01 0.00 0.00 0.00 0.00 0.00 0.00 0.00 0.00 0.00 0.00 0.00 0.00 0.00 0.00 0.00 0.00 0.00 0.00 0.00 0.00 0.00 0.00 0.00 0.00 0.00 0.00 0.00 0.00 0.00 0.00 0.00 0.00 0.00 0.00 0.00 0.00 0.00 0.00 0.00 0.00 0.00
0.01 0.01 0.01 0.00 0.00 0.00 0.00 0.00 0.00 0.00 0.00 0.00 0.00 0.00 0.00 0.00 0.00 0.00 0.00 0.00 0.00 0.00 0.00 0.00 0.00 0.00 0.00 0.00 0.00 0.00 0.00 0.00 0.00 0.00 0.00 0.00 0.00 0.00 0.00 0.00 0.00 0.00 0.00 0.00
0.01 0.02 0.01 0.00 0.00 0.00 0.00 0.00 0.00 0.00 0.00 0.00 0.00 0.00 0.00 0.00 0.00 0.00 0.00 0.00 0.00 0.00 0.00 0.00 0.00 0.00 0.00 0.00 0.00 0.00 0.00 0.00 0.01 0.01 0.00 0.01 0.01 0.00 0.00 0.00 0.00 0.00 0.00 0.00
0.01 0.02 0.01 0.00 0.00 0.00 0.00 0.00 0.00 0.02 0.01 0.00 0.00 0.00 0.00 0.00 0.00 0.00 0.00 0.00 0.00 0.00 0.00 0.00 0.00 0.00 0.00 0.00 0.00 0.00 0.00 0.00 0.01 0.01 0.02 0.07 0.00 0.00 0.00 0.00 0.00 0.00 0.00 0.00
0.01 0.02 0.00 0.00 0.00 0.00 0.00 0.00 0.00 0.01 0.04 0.00 0.00 0.00 0.00 0.00 0.00 0.00 0.00 0.00 0.00 0.00 0.00 0.00 0.00 0.00 0.00 0.00 0.00 0.00 0.00 0.00 0.01 0.02 0.03 0.02 0.00 0.00 0.00 0.00 0.00 0.00 0.00 0.02
0.01 0.00 0.00 0.00 0.00 0.00 0.00 0.00 0.00 0.01 0.03 0.00 0.00 0.00 0.00 0.00 0.01 0.01 0.01 0.00 0.00 0.00 0.01 0.01 0.02 0.00 0.00 0.00 0.00 0.00 0.00 0.00 0.02 0.03 0.05 0.04 0.00 0.00 0.00 0.00 0.01 0.01 0.04 0.09
0.00 0.00 0.00 0.00 0.00 0.00 0.00 0.02 0.01 0.04 0.03 0.00 0.00 0.00 0.00 0.00 0.01 0.03 0.02 0.02 0.01 0.00 0.02 0.04 0.02 0.01 0.00 0.01 0.01 0.01 0.01 0.00 0.00 0.01 0.04 0.01 0.00 0.00 0.01 0.14 0.17 0.06 0.12 0.17
0.00 0.00 0.00 0.00 0.00 0.00 0.00 0.02 0.05 0.12 0.08 0.00 0.00 0.00 0.00 0.00 0.01 0.04 0.04 0.03 0.00 0.01 0.01 0.02 0.00 0.01 0.01 0.01 0.00 0.01 0.03 0.09 0.10 0.07 0.16 0.06 0.00 0.03 0.15 0.18 0.08 0.08 0.07 0.06
0.00 0.00 0.00 0.00 0.00 0.00 0.00 0.01 0.05 0.09 0.12 0.02 0.00 0.00 0.00 0.00 0.00 0.04 0.08 0.04 0.03 0.06 0.03 0.01 0.01 0.01 0.02 0.00 0.02 0.00 0.01 0.01 0.02 0.04 0.03 0.00 0.00 0.03 0.02 0.04 0.10 0.07 0.07 0.09
0.00 0.00 0.00 0.00 0.01 0.02 0.02 0.01 0.04 0.03 0.06 0.03 0.02 0.00 0.00 0.00 0.00 0.02 0.11 0.04 0.03 0.07 0.09 0.16 0.09 0.13 0.06 0.05 0.04 0.01 0.04 0.02 0.02 0.02 0.01 0.00 0.01 0.01 0.02 0.06 0.08 0.13 0.20 0.24
0.00 0.00 0.00 0.00 0.00 0.00 0.02 0.03 0.04 0.10 0.13 0.13 0.03 0.00 0.00 0.00 0.00 0.00 0.01 0.04 0.10 0.17 0.25 0.24 0.18 0.24 0.12 0.07 0.02 0.05 0.08 0.06 0.03 0.05 0.01 0.02 0.04 0.07 0.14 0.21 0.31 0.29 0.19 0.14
0.01 0.01 0.01 0.00 0.00 0.02 0.05 0.08 0.04 0.08 0.22 0.22 0.08 0.02 0.00 0.00 0.00 0.00 0.01 0.06 0.10 0.21 0.21 0.14 0.05 0.02 0.04 0.06 0.09 0.13 0.06 0.03 0.06 0.10 0.06 0.23 0.22 0.33 0.42 0.38 0.27 0.15 0.09 0.04
0.06 0.05 0.05 0.06 0.09 0.28 0.66 0.62 0.18 0.07 0.18 0.63 0.36 0.04 0.00 0.00 0.00 0.00 0.00 0.01 0.10 0.24 0.14 0.04 0.01 0.01 0.11 0.26 0.14 0.02 0.00 0.01 0.11 0.16 0.13 0.22 0.32 0.34 0.22 0.20 0.13 0.04 0.01 0.00
0.05 0.09 0.14 0.20 0.39 0.74 0.90 0.64 0.18 0.04 0.20 0.97 0.69 0.12 0.01 0.00 0.00 0.01 0.02 0.04 0.09 0.12 0.11 0.06 0.02 0.03 0.30 0.41 0.16 0.01 0.00 0.01 0.04 0.05 0.10 0.20 0.20 0.19 0.14 0.06 0.01 0.00 0.00 0.00
0.07 0.09 0.19 0.46 1.11 1.31 0.99 0.64 0.60 0.44 0.45 0.71 0.66 0.20 0.02 0.00 0.00 0.01 0.00 0.01 0.02 0.06 0.08 0.06 0.05 0.05 0.15 0.26 0.04 0.00 0.00 0.00 0.00 0.01 0.03 0.09 0.04 0.01 0.01 0.00 0.00 0.00 0.00 0.00
0.26 0.42 0.65 0.75 0.63 0.49 0.53 0.74 0.80 0.94 1.01 1.10 0.59 0.09 0.04 0.05 0.04 0.03 0.04 0.07 0.14 0.10 0.05 0.02 0.06 0.04 0.06 0.02 0.00 0.00 0.00 0.00 0.01 0.00 0.00 0.00 0.00 0.00 0.01 0.00 0.00 0.00 0.00 0.00
0.76 0.77 0.77 0.79 0.61 0.62 0.46 0.59 0.86 1.27 1.35 1.11 0.52 0.13 0.10 0.06 0.07 0.13 0.17 0.29 0.23 0.18 0.02 0.03 0.06 0.04 0.00 0.00 0.00 0.00 0.00 0.01 0.00 0.00 0.01 0.03 0.04 0.02 0.00 0.00 0.00 0.00 0.00 0.00
1.63 1.27 0.99 0.66 0.65 0.45 0.52 0.63 0.62 0.62 0.48 0.34 0.17 0.08 0.08 0.08 0.15 0.30 0.37 0.31 0.15 0.16 0.02 0.09 0.07 0.02 0.00 0.00 0.00 0.00 0.00 0.00 0.00 0.01 0.01 0.01 0.00 0.00 0.00 0.00 0.00 0.00 0.00 0.00
1.30 0.89 0.77 0.80 0.66 0.57 0.65 0.75 0.49 0.22 0.10 0.04 0.03 0.03 0.06 0.17 0.22 0.32 0.43 0.24 0.18 0.11 0.02 0.08 0.07 0.01 0.00 0.00 0.00 0.00 0.00 0.00 0.00 0.00 0.00 0.00 0.00 0.00 0.00 0.00 0.00 0.00 0.00 0.00
0.94 1.08 1.22 1.06 1.08 0.88 0.60 0.32 0.17 0.10 0.04 0.04 0.02 0.05 0.07 0.10 0.15 0.33 0.37 0.36 0.30 0.13 0.15 0.08 0.02 0.02 0.00 0.00 0.00 0.00 0.00 0.00 0.00 0.00 0.00 0.00 0.00 0.00 0.00 0.00 0.00 0.00 0.00 0.00
0.87 1.21 1.26 0.90 0.82 0.54 0.30 0.08 0.03 0.04 0.05 0.04 0.03 0.07 0.08 0.12 0.16 0.20 0.21 0.22 0.13 0.14 0.06 0.02 0.02 0.00 0.00 0.00 0.00 0.00 0.00 0.00 0.00 0.00 0.00 0.00 0.00 0.00 0.00 0.00 0.00 0.00 0.00 0.00
0.27 0.34 0.49 0.48 0.40 0.24 0.15 0.09 0.05 0.06 0.07 0.06 0.08 0.13 0.10 0.11 0.14 0.14 0.11 0.11 0.08 0.04 0.03 0.04 0.01 0.00 0.00 0.00 0.00 0.00 0.00 0.00 0.00 0.00 0.00 0.00 0.00 0.00 0.00 0.00 0.00 0.00 0.00 0.00
0.06 0.14 0.22 0.24 0.22 0.21 0.14 0.09 0.08 0.09 0.12 0.10 0.09 0.10 0.10 0.12 0.10 0.08 0.08 0.07 0.05 0.06 0.03 0.02 0.00 0.00 0.00 0.00 0.00 0.00 0.00 0.00 0.00 0.00 0.00 0.00 0.00 0.00 0.01 0.01 0.01 0.02 0.01 0.01
0.00 0.02 0.05 0.08 0.08 0.09 0.09 0.10 0.11 0.09 0.10 0.09 0.07 0.05 0.08 0.07 0.07 0.04 0.02 0.03 0.02 0.00 0.00 0.00 0.00 0.00 0.00 0.00 0.00 0.00 0.00 0.00 0.00 0.00 0.00 0.01 0.01 0.03 0.04 0.04 0.02 0.01 0.01 0.02

GFSNW_prec_precacc_033.txt.gz
Total_Precipitation_Accumulation
0.00 0.00 0.01 0.01 0.00 0.00 0.00 0.00 0.00 0.00 0.00 0.00 0.00 0.00 0.00 0.00 0.00 0.00 0.00 0.00 0.00 0.00 0.00 0.00 0.00 0.00 0.00 0.00 0.00 0.00 0.00 0.00 0.00 0.00 0.00 0.00 0.00 0.00 0.00 0.01 0.02 0.01 0.03 0.01
0.00 0.01 0.01 0.01 0.00 0.00 0.00 0.00 0.00 0.00 0.00 0.01 0.00 0.00 0.00 0.00 0.00 0.00 0.00 0.00 0.00 0.00 0.00 0.00 0.00 0.00 0.00 0.00 0.00 0.00 0.00 0.00 0.00 0.00 0.00 0.00 0.00 0.00 0.00 0.00 0.00 0.01 0.03 0.00
0.01 0.01 0.01 0.00 0.00 0.00 0.00 0.01 0.00 0.00 0.00 0.00 0.00 0.00 0.00 0.00 0.00 0.00 0.00 0.00 0.00 0.00 0.00 0.00 0.00 0.00 0.00 0.00 0.00 0.00 0.00 0.00 0.00 0.00 0.00 0.00 0.00 0.00 0.00 0.00 0.00 0.00 0.00 0.00
0.01 0.01 0.01 0.00 0.00 0.00 0.00 0.01 0.00 0.00 0.00 0.00 0.00 0.00 0.00 0.00 0.00 0.00 0.00 0.00 0.00 0.00 0.00 0.00 0.00 0.00 0.00 0.00 0.00 0.00 0.00 0.00 0.00 0.00 0.00 0.00 0.00 0.00 0.00 0.00 0.00 0.00 0.00 0.00
0.01 0.01 0.01 0.00 0.00 0.00 0.00 0.01 0.00 0.00 0.00 0.00 0.00 0.00 0.00 0.00 0.00 0.00 0.00 0.00 0.00 0.00 0.00 0.00 0.00 0.00 0.00 0.00 0.00 0.00 0.00 0.00 0.00 0.00 0.00 0.00 0.00 0.00 0.00 0.00 0.00 0.00 0.00 0.00
0.01 0.02 0.01 0.00 0.00 0.00 0.00 0.00 0.00 0.00 0.00 0.00 0.00 0.00 0.00 0.00 0.00 0.00 0.00 0.00 0.00 0.00 0.00 0.00 0.00 0.00 0.00 0.00 0.00 0.00 0.00 0.00 0.01 0.01 0.00 0.01 0.01 0.00 0.00 0.00 0.00 0.00 0.00 0.00
0.01 0.02 0.01 0.00 0.00 0.00 0.00 0.00 0.00 0.02 0.01 0.00 0.00 0.00 0.00 0.00 0.00 0.00 0.00 0.00 0.00 0.00 0.00 0.00 0.00 0.00 0.00 0.00 0.00 0.00 0.00 0.00 0.01 0.01 0.02 0.07 0.00 0.00 0.00 0.00 0.00 0.00 0.00 0.00
0.01 0.02 0.00 0.00 0.00 0.00 0.00 0.00 0.00 0.01 0.04 0.00 0.00 0.00 0.00 0.00 0.00 0.00 0.00 0.00 0.00 0.00 0.00 0.00 0.00 0.00 0.00 0.00 0.00 0.00 0.00 0.00 0.01 0.02 0.03 0.02 0.00 0.00 0.00 0.00 0.00 0.00 0.00 0.02
0.01 0.00 0.00 0.00 0.00 0.00 0.00 0.00 0.00 0.01 0.03 0.00 0.00 0.00 0.00 0.00 0.01 0.01 0.01 0.00 0.00 0.00 0.01 0.01 0.02 0.00 0.00 0.00 0.00 0.00 0.00 0.00 0.02 0.03 0.05 0.04 0.00 0.00 0.00 0.00 0.01 0.01 0.04 0.09
0.01 0.00 0.00 0.00 0.00 0.00 0.00 0.02 0.01 0.04 0.04 0.00 0.00 0.00 0.00 0.00 0.01 0.03 0.02 0.02 0.01 0.00 0.02 0.04 0.02 0.01 0.00 0.01 0.01 0.01 0.01 0.00 0.00 0.01 0.04 0.01 0.00 0.00 0.01 0.14 0.17 0.06 0.12 0.17
0.00 0.00 0.00 0.00 0.00 0.00 0.00 0.02 0.05 0.12 0.08 0.00 0.00 0.00 0.00 0.00 0.02 0.04 0.04 0.03 0.00 0.01 0.01 0.02 0.00 0.01 0.01 0.01 0.00 0.01 0.03 0.09 0.10 0.07 0.16 0.06 0.00 0.03 0.15 0.18 0.08 0.08 0.07 0.06
0.00 0.00 0.00 0.00 0.00 0.00 0.00 0.01 0.05 0.09 0.12 0.02 0.00 0.00 0.00 0.00 0.00 0.04 0.08 0.04 0.03 0.06 0.03 0.01 0.01 0.01 0.02 0.00 0.02 0.00 0.01 0.01 0.02 0.04 0.03 0.00 0.00 0.03 0.02 0.04 0.10 0.07 0.07 0.09
0.00 0.00 0.00 0.00 0.01 0.02 0.02 0.01 0.04 0.03 0.06 0.03 0.02 0.00 0.00 0.00 0.00 0.02 0.11 0.04 0.03 0.07 0.09 0.16 0.09 0.13 0.06 0.05 0.04 0.01 0.04 0.02 0.02 0.02 0.01 0.00 0.01 0.01 0.02 0.06 0.08 0.13 0.20 0.24
0.00 0.00 0.00 0.00 0.00 0.00 0.02 0.03 0.04 0.10 0.13 0.13 0.03 0.00 0.00 0.00 0.00 0.00 0.01 0.04 0.10 0.17 0.25 0.24 0.18 0.24 0.12 0.07 0.02 0.05 0.08 0.06 0.03 0.05 0.01 0.02 0.04 0.07 0.14 0.21 0.31 0.29 0.19 0.14
0.01 0.01 0.01 0.00 0.00 0.02 0.05 0.08 0.04 0.08 0.22 0.23 0.08 0.02 0.00 0.00 0.00 0.00 0.01 0.06 0.10 0.21 0.21 0.14 0.05 0.02 0.04 0.06 0.09 0.13 0.06 0.03 0.06 0.10 0.06 0.23 0.22 0.33 0.42 0.38 0.27 0.15 0.09 0.04
0.06 0.05 0.05 0.06 0.09 0.28 0.66 0.62 0.18 0.07 0.18 0.63 0.36 0.04 0.00 0.00 0.00 0.00 0.00 0.01 0.10 0.24 0.14 0.04 0.01 0.01 0.11 0.26 0.14 0.02 0.00 0.01 0.11 0.16 0.13 0.22 0.32 0.34 0.22 0.20 0.13 0.04 0.01 0.00
0.05 0.09 0.14 0.20 0.39 0.74 0.90 0.64 0.18 0.04 0.20 0.97 0.69 0.12 0.01 0.00 0.00 0.01 0.02 0.04 0.09 0.12 0.12 0.06 0.02 0.03 0.30 0.41 0.16 0.01 0.00 0.01 0.04 0.05 0.10 0.20 0.20 0.19 0.14 0.06 0.01 0.00 0.00 0.00
0.07 0.09 0.19 0.46 1.11 1.31 0.99 0.64 0.60 0.44 0.45 0.71 0.66 0.20 0.02 0.00 0.00 0.01 0.00 0.01 0.02 0.06 0.08 0.06 0.05 0.05 0.15 0.26 0.04 0.00 0.00 0.00 0.00 0.01 0.03 0.09 0.04 0.01 0.01 0.00 0.00 0.00 0.00 0.00
0.26 0.42 0.65 0.75 0.63 0.49 0.54 0.74 0.80 0.94 1.01 1.10 0.59 0.09 0.04 0.05 0.04 0.03 0.04 0.07 0.14 0.10 0.05 0.02 0.06 0.04 0.06 0.02 0.00 0.00 0.00 0.00 0.01 0.00 0.00 0.00 0.00 0.00 0.01 0.00 0.00 0.00 0.00 0.00
0.76 0.78 0.77 0.80 0.61 0.62 0.46 0.59 0.86 1.27 1.35 1.11 0.52 0.13 0.10 0.06 0.07 0.13 0.17 0.29 0.23 0.18 0.02 0.03 0.06 0.04 0.00 0.00 0.00 0.00 0.00 0.01 0.00 0.00 0.01 0.03 0.04 0.02 0.00 0.00 0.00 0.00 0.00 0.00
1.66 1.28 1.00 0.68 0.66 0.45 0.52 0.63 0.62 0.62 0.48 0.34 0.17 0.08 0.08 0.08 0.15 0.30 0.37 0.31 0.15 0.16 0.02 0.09 0.07 0.02 0.00 0.00 0.00 0.00 0.00 0.00 0.00 0.01 0.01 0.01 0.00 0.00 0.00 0.00 0.00 0.00 0.00 0.00
1.40 0.93 0.78 0.84 0.72 0.62 0.69 0.76 0.50 0.22 0.10 0.04 0.03 0.03 0.06 0.17 0.22 0.32 0.43 0.24 0.18 0.11 0.02 0.09 0.07 0.01 0.00 0.00 0.00 0.00 0.00 0.00 0.00 0.00 0.00 0.00 0.00 0.00 0.00 0.00 0.00 0.00 0.00 0.00
1.13 1.28 1.42 1.24 1.32 1.05 0.72 0.33 0.17 0.10 0.04 0.04 0.02 0.05 0.07 0.10 0.15 0.35 0.39 0.39 0.31 0.14 0.16 0.08 0.02 0.02 0.00 0.00 0.00 0.00 0.00 0.00 0.00 0.00 0.00 0.00 0.00 0.00 0.00 0.00 0.00 0.00 0.00 0.00
1.04 1.44 1.58 1.18 1.05 0.68 0.36 0.11 0.04 0.04 0.05 0.04 0.03 0.07 0.09 0.12 0.17 0.24 0.29 0.32 0.18 0.19 0.08 0.03 0.03 0.00 0.00 0.00 0.00 0.00 0.00 0.00 0.00 0.00 0.00 0.00 0.00 0.00 0.00 0.00 0.00 0.00 0.00 0.00
0.31 0.42 0.62 0.61 0.48 0.29 0.17 0.10 0.06 0.07 0.08 0.08 0.12 0.18 0.15 0.16 0.24 0.25 0.20 0.19 0.15 0.09 0.13 0.17 0.07 0.00 0.00 0.00 0.00 0.00 0.00 0.00 0.00 0.00 0.00 0.00 0.00 0.00 0.00 0.00 0.00 0.00 0.00 0.00
0.07 0.16 0.26 0.28 0.26 0.27 0.19 0.15 0.14 0.16 0.20 0.19 0.18 0.19 0.19 0.22 0.17 0.14 0.15 0.14 0.15 0.22 0.11 0.04 0.00 0.00 0.00 0.00 0.00 0.00 0.00 0.00 0.00 0.00 0.00 0.00 0.00 0.00 0.01 0.01 0.01 0.02 0.01 0.01
0.00 0.03 0.06 0.09 0.09 0.11 0.12 0.14 0.16 0.15 0.15 0.13 0.10 0.10 0.14 0.13 0.12 0.10 0.08 0.12 0.09 0.03 0.01 0.00 0.00 0.00 0.00 0.00 0.00 0.00 0.00 0.00 0.00 0.00 0.00 0.01 0.01 0.03 0.04 0.04 0.02 0.01 0.01 0.02